Sumburgh, United Kingdom

4:41 AM BST on June 28, 2017 (GMT +0100)
Sumburgh

Weather History for EGPB - February, 2013

Change the Weather History Date:

Saturday, February 23, 2013

  Actual Average Record
Temperature  
Mean Temperature 37 °F -  
Max Temperature 44 °F 43 °F 50 °F (1998)
Min Temperature 30 °F 38 °F 30 °F (2002)
Degree Days  
Heating Degree Days 28    
Moisture  
Dew Point 30 °F    
Average Humidity 74    
Maximum Humidity 87    
Minimum Humidity 57    
Precipitation  
Precipitation 0.00 in - - ()
Sea Level Pressure  
Sea Level Pressure 30.39 in    
Wind  
Wind Speed 6 mph ()    
Max Wind Speed 14 mph    
Max Gust Speed -    
Visibility 6.2 miles    
Events Rain    
Averages and records for this station are not official NWS values.
T = Trace of Precipitation, MM = Missing Value Source: Averaged Metar Reports

Daily Weather History Graph

Daily Weather History Graph

Search for Another Location

Airport or City:

Trip Planner

Search our weather history database for the weather conditions in past years. The results will help you decide how hot, cold, wet, or windy it might be!

Date:

Astronomy

Feb. 23, 2013 Rise Set
Actual Time 7:20 AM GMT 5:17 PM GMT
Civil Twilight 6:37 AM GMT 6:00 PM GMT
Nautical Twilight 5:50 AM GMT 6:48 PM GMT
Astronomical Twilight 5:01 AM GMT 7:36 PM GMT
Moon 2:53 PM GMT (2/23) 5:57 AM GMT (2/23)
Length of Visible Light 11h 22m
Length of Day
9h 57m
Waxing Gibbous, 94% of the Moon is Illuminated
Feb 23
Waxing Gibbous
Feb 25
Full
Mar 4
Last Quarter
Mar 11
New
Mar 19
First Quarter

Hourly Weather History & Observations

Time (GMT) Temp. Windchill Dew Point Humidity Pressure Visibility Wind Dir Wind Speed Gust Speed Precip Events Conditions
12:20 AM 37.4 °F 32.8 °F 30.2 °F 75% 30.33 in 6.2 mi NNW 5.8 mph - N/A   Overcast
12:50 AM 37.4 °F 32.1 °F 32.0 °F 81% 30.33 in 6.2 mi NNW 6.9 mph - N/A   Overcast
1:20 AM 37.4 °F 32.1 °F 30.2 °F 75% 30.33 in 6.2 mi NNW 6.9 mph - N/A   Overcast
1:50 AM 37.4 °F 32.8 °F 30.2 °F 75% 30.33 in 6.2 mi North 5.8 mph - N/A   Mostly Cloudy
2:20 AM 37.4 °F 31.4 °F 32.0 °F 81% 30.33 in 6.2 mi North 8.1 mph - N/A   Scattered Clouds
2:50 AM 37.4 °F 30.3 °F 33.8 °F 87% 30.33 in 6.2 mi NE 10.4 mph - N/A   Drizzle
3:20 AM 39.2 °F 32.0 °F 35.6 °F 87% 30.33 in 6.2 mi NE 11.5 mph - N/A Rain Light Rain Showers
3:50 AM 37.4 °F 29.8 °F 33.8 °F 87% 30.33 in 6.2 mi NE 11.5 mph - N/A   Scattered Clouds
4:20 AM 39.2 °F 31.6 °F 33.8 °F 81% 30.33 in 6.2 mi East 12.7 mph - N/A   Scattered Clouds
4:50 AM 37.4 °F 28.9 °F 30.2 °F 75% 30.33 in 6.2 mi East 13.8 mph - N/A   Unknown
5:20 AM 37.4 °F 30.3 °F 28.4 °F 70% 30.33 in 6.2 mi East 10.4 mph - N/A   Unknown
5:50 AM 37.4 °F 30.8 °F 28.4 °F 70% 30.33 in 6.2 mi East 9.2 mph - N/A   Unknown
6:20 AM 37.4 °F 31.4 °F 28.4 °F 70% 30.33 in 6.2 mi East 8.1 mph - N/A   Unknown
6:50 AM 37.4 °F 31.4 °F 28.4 °F 70% 30.36 in - East 8.1 mph - N/A   Clear
7:20 AM 35.6 °F 29.9 °F 28.4 °F 75% 30.36 in - East 6.9 mph - N/A   Clear
7:50 AM 37.4 °F 32.8 °F 30.2 °F 75% 30.36 in - East 5.8 mph - N/A   Clear
8:20 AM 37.4 °F 32.8 °F 30.2 °F 75% 30.36 in - East 5.8 mph - N/A   Clear
8:50 AM 39.2 °F 33.6 °F 30.2 °F 70% 30.36 in - East 8.1 mph - N/A   Clear
9:20 AM 41.0 °F 35.2 °F 30.2 °F 65% 30.39 in - East 9.2 mph - N/A   Clear
9:50 AM 41.0 °F 35.8 °F 30.2 °F 65% 30.39 in - East 8.1 mph - N/A   Clear
10:20 AM 41.0 °F 35.2 °F 30.2 °F 65% 30.39 in - East 9.2 mph - N/A   Clear
10:50 AM 42.8 °F 37.5 °F 30.2 °F 61% 30.39 in - East 9.2 mph - N/A   Clear
11:20 AM 42.8 °F 38.0 °F 30.2 °F 61% 30.39 in - ENE 8.1 mph - N/A   Clear
11:50 AM 42.8 °F 38.6 °F 30.2 °F 61% 30.39 in - East 6.9 mph - N/A   Clear
12:20 PM 42.8 °F 38.6 °F 30.2 °F 61% 30.39 in - East 6.9 mph - N/A   Clear
12:50 PM 42.8 °F 38.0 °F 30.2 °F 61% 30.39 in - ENE 8.1 mph - N/A   Clear
1:20 PM 42.8 °F 38.0 °F 32.0 °F 66% 30.39 in - East 8.1 mph - N/A   Clear
1:50 PM 44.6 °F 40.2 °F 30.2 °F 57% 30.39 in - East 8.1 mph - N/A   Clear
2:20 PM 44.6 °F 40.7 °F 32.0 °F 61% 30.39 in - ENE 6.9 mph - N/A   Clear
2:50 PM 44.6 °F 40.7 °F 32.0 °F 61% 30.39 in - East 6.9 mph - N/A   Clear
3:20 PM 42.8 °F 38.6 °F 32.0 °F 66% 30.39 in 6.2 mi East 6.9 mph - N/A   Partly Cloudy
3:50 PM 42.8 °F 39.3 °F 33.8 °F 70% 30.39 in 6.2 mi East 5.8 mph - N/A   Partly Cloudy
4:20 PM 42.8 °F 40.1 °F 33.8 °F 70% 30.42 in 6.2 mi East 4.6 mph - N/A   Partly Cloudy
4:50 PM 41.0 °F 39.0 °F 32.0 °F 70% 30.42 in 6.2 mi East 3.5 mph - N/A   Partly Cloudy
5:20 PM 39.2 °F - 30.2 °F 70% 30.42 in 6.2 mi ESE 2.3 mph - N/A   Unknown
5:50 PM 37.4 °F - 30.2 °F 75% 30.42 in 6.2 mi Calm Calm - N/A   Unknown
6:20 PM 35.6 °F - 28.4 °F 75% 30.42 in 6.2 mi Calm Calm - N/A   Unknown
6:50 PM 33.8 °F - 28.4 °F 81% 30.42 in 6.2 mi Calm Calm - N/A   Unknown
7:20 PM 32.0 °F - 26.6 °F 80% 30.42 in 6.2 mi Calm Calm - N/A   Unknown
7:50 PM 32.0 °F - 28.4 °F 87% 30.42 in 6.2 mi Calm Calm - N/A   Unknown
8:20 PM 32.0 °F - 26.6 °F 80% 30.45 in 6.2 mi Calm Calm - N/A   Unknown
8:50 PM 30.2 °F - 26.6 °F 86% 30.45 in 6.2 mi Calm Calm - N/A   Unknown
9:20 PM 32.0 °F - 28.4 °F 87% 30.45 in 6.2 mi Calm Calm - N/A   Unknown
9:50 PM 32.0 °F - 28.4 °F 87% 30.45 in 6.2 mi North 2.3 mph - N/A   Unknown
10:20 PM 32.0 °F - 28.4 °F 87% 30.45 in 6.2 mi Calm Calm - N/A   Unknown
10:50 PM 32.0 °F - 28.4 °F 87% 30.45 in - Calm Calm - N/A   Clear
11:20 PM 32.0 °F - 28.4 °F 87% 30.48 in - Calm Calm - N/A   Clear
11:50 PM 32.0 °F - 28.4 °F 87% 30.48 in - North 2.3 mph - N/A   Clear